Regional Weather Roundup
Issued by NWS

Home | Current Version | Previous Version | Text Only | Print | Product List | Glossary On
Versions: 1 2 3 4 5 6 7 8 9 10 11 12 13 14 15 16 17 18 19 20 21 22 23 24 25 26 27 28 29 30 31 32 33 34 35 36 37 38 39 40 41 42 43 44 45 46 47 48
000
ASUS45 KSLC 070110
RWRUT

UTAH REGIONAL WEATHER ROUNDUP
NATIONAL WEATHER SERVICE SALT LAKE CITY UT
600 PM MST FRI MAR 06 2015

UTZ001>011-023>025-070200-

NORTHERN UTAH

CITY           SKY/WX    TMP DP  RH WIND       PRES   REMARKS
BRIGHAM CITY   CLEAR     51  20  29 CALM      30.38F
HILL AFB       CLEAR     49  20  32 NW7       30.37F
LOGAN          CLEAR     51  22  31 W3        30.37F
OGDEN          PTCLDY    49  26  41 N8        30.37F
PROVO AIRPORT  CLEAR     48  21  34 CALM      30.37F
SALT LAKE CITY PTCLDY    51  28  41 N8        30.37F
VERNAL         CLEAR     44  23  43 CALM      30.35S
WENDOVER       CLEAR     52  21  30 E3        30.37F
HEBER CITY     CLEAR     46  27  46 SW8       30.35F
WEST JORDAN    CLEAR     48  30  49 NW7       30.37F

$$

UTZ012>022-026-027-070200-

SOUTHERN/CENTRAL UTAH

CITY           SKY/WX    TMP DP  RH WIND       PRES   REMARKS
BLANDING       CLEAR     48  31  51 CALM      30.38S
BRYCE CANYON   PTCLDY    36  19  50 N5        30.36S WCI  32
CEDAR CITY     PTCLDY    46  25  43 N8        30.31F
DELTA          CLEAR     53  21  28 N3        30.35S
HANKSVILLE     CLEAR     52  16  24 N3        30.34F
MILFORD        CLEAR     51  23  33 N13       30.33F
MOAB/CYNLANDS  CLEAR     50  19  29 NW8       30.30F
PRICE          CLEAR     48  21  34 CALM      30.34F
ST GEORGE      CLEAR     63  27  25 E7        30.23F
KANAB          CLEAR     52  23  32 NE9       30.32F

$$

REGIONAL REPORTS     COLORADO/ARIZONA

CITY           SKY/WX    TMP DP  RH WIND       PRES   REMARKS
CRAIG, CO        N/A     39  25  57 E5        30.36S
GRAND JUNCTION CLEAR     50  17  27 W3        30.32S
RIFLE          CLEAR     50  20  30 CALM      30.32F
MONTROSE       CLEAR     49  19  30 N3        30.35S
CORTEZ         CLEAR     47  28  47 W6        30.31S
PAGE, AZ       CLEAR     54  19  25 VRB3      30.30S
GRAND CANYON   CLEAR     44  21  40 NE18G24   30.30F
KINGMAN        CLEAR     63  25  23 N17       30.14F
FLAGSTAFF      PTCLDY    43  16  33 NE13      30.27S

$$

REGIONAL REPORTS    NEVADA/IDAHO/WYOMING

CITY           SKY/WX    TMP DP  RH WIND       PRES   REMARKS
LAS VEGAS, NV  CLEAR     71  13  10 E9        30.13F
ELY            CLEAR     52  20  28 N14       30.34F
ELKO           CLEAR     59   9  13 E8        30.33F
POCATELLO, ID  CLEAR     52  20  28 W8        30.35F
BURLEY         CLEAR     55  16  21 W7        30.34S
EVANSTON, WY   CLEAR     40  22  48 W9        30.38S WCI  34
ROCK SPRINGS   CLEAR     40  23  50 SW17      30.30S WCI  31
KEMMERER       CLEAR     37  19  48 NW14      30.37R WCI  29

$$



USA.gov is the U.S. government's official web portal to all federal, state and local government web resources and services.